Regional Weather Roundup
Issued by NWS

Home | Current Version | Previous Version | Graphics & Text | Print | Product List | Glossary Off
Versions: 1 2 3 4 5 6 7 8 9 10 11 12 13 14 15 16 17 18 19 20 21 22 23 24 25 26 27 28 29 30 31 32 33 34 35 36 37 38 39 40 41 42 43 44 45 46 47 48 49 50

000
ASUS43 KMKX 191011
RWRWI

WISCONSIN REGIONAL WEATHER ROUNDUP
NATIONAL WEATHER SERVICE MILWAUKEE/SULLIVAN WI
500 AM CDT SAT APR 19 2014

NOTE: "FAIR" INDICATES FEW OR NO CLOUDS BELOW 12,000 FEET WITH NO
SIGNIFICANT WEATHER AND/OR OBSTRUCTIONS TO VISIBILITY.

WIZ001-002-006>008-014>016-023>028-191100-
NORTHWEST WISCONSIN

CITY           SKY/WX    TMP DP  RH WIND       PRES   REMARKS
SUPERIOR ARPT  CLOUDY    33  29  86 E14G20    30.17F WCI  23
ASHLAND        CLOUDY    35  24  64 E6        30.29F WCI  30
HAYWARD        CLOUDY    37  25  61 SE13G25   30.25F WCI  29
SIREN          CLOUDY    40  28  63 SE16G23   30.17F WCI  31
RICE LAKE      MOCLDY    37  27  66 SE18G25   30.28S WCI  27
LADYSMITH      MOCLDY    37  28  70 SE10      30.32R WCI  29
EAU CLAIRE     PTCLDY    37  26  64 SE16G23   30.28S WCI  28
MENOMONIE      MOSUNNY   38  29  70 E13G20    30.27R WCI  30
NEW RICHMOND   CLOUDY    40  30  67 SE15G23   30.20S WCI  31
OSCEOLA        CLOUDY    41  31  66 SE20G26   30.21S
$$

WIZ003>005-009-010-017-018-191100-
NORTH CENTRAL WISCONSIN

CITY           SKY/WX    TMP DP  RH WIND       PRES   REMARKS
WOODRUFF       CLOUDY    32  25  74 SE10      30.36R WCI  24
RHINELANDER    CLOUDY    30  23  75 SE8       30.37R WCI  22
EAGLE RIVER    CLOUDY    31  23  74 SE3       30.37S
LAND O LAKES   CLOUDY    31  26  81 SE7       30.37S WCI  24
PHILLIPS       MOCLDY    33  25  72 SE12G20   30.32F WCI  24
TOMAHAWK       CLOUDY    31  24  74 CALM      30.36F
MEDFORD        PTCLDY    32  25  74 SE12G17   30.33S WCI  23
MERRILL        MOCLDY    32  26  78 CALM      30.36F
$$

WIZ029-030-035-036-043>047-191100-
CENTRAL WISCONSIN

CITY           SKY/WX    TMP DP  RH WIND       PRES   REMARKS
WAUSAU         MOCLDY    32  26  78 E10       30.36F WCI  24
MOSINEE        MOCLDY    32  28  86 E9        30.38F WCI  24
MARSHFIELD     PTCLDY    33  26  75 SE9       30.35F WCI  25
STEVENS POINT  MOCLDY    30  25  81 E9        30.38F WCI  22
WAUPACA        MOCLDY    34  27  75 E7        30.41F WCI  28
WAUTOMA        MOCLDY    33  27  79 E7        30.40F WCI  27
WISC RAPIDS    MOCLDY    32  25  75 E7        30.38F WCI  26
CAMP DOUGLAS   PTCLDY    32  27  81 E9        30.35F WCI  24
$$

WIZ011>013-019>022-031-037>040-048>050-191100-
NORTHEAST WISCONSIN

CITY           SKY/WX    TMP DP  RH WIND       PRES   REMARKS
ANTIGO         MOCLDY    29  25  86 SE8       30.39S WCI  21
STURGEON BAY   PTCLDY    30  27  86 E3        30.46S
GREEN BAY      PTCLDY    32  27  81 NE3       30.44S
MANITOWOC      PTCLDY    31  29  92 E3        30.45R
APPLETON       PTCLDY    32  27  80 E6        30.41F WCI  26
CLINTONVILLE   PTCLDY    32  28  86 E5        30.42F WCI  27
OSHKOSH        PTCLDY    34  27  75 E9        30.40F WCI  27
$$

WIZ032>034-041-042-053>061-191100-
SOUTHWEST WISCONSIN

CITY           SKY/WX    TMP DP  RH WIND       PRES   REMARKS
LA CROSSE      CLEAR     39  27  62 SE13      30.32R WCI  31
SPARTA         CLEAR     35  25  67 SE7       30.35S WCI  29
VIROQUA        FAIR      34  27  76 SE12G18   30.30S WCI  25
BOSCOBEL       CLEAR     36  25  64 CALM      30.34F
PRAIRIE DU CHI CLEAR     37  27  67 E7        30.32F WCI  31
PLATTEVILLE    FAIR      33  28  81 E12       30.32F WCI  24
$$

WIZ056-057-062-063-064-067-068-191100-
SOUTH CENTRAL WISCONSIN

CITY           SKY/WX    TMP DP  RH WIND       PRES   REMARKS
BARABOO/DELLS  PTCLDY    33  24  70 E9        30.35F WCI  25
LONE ROCK      CLEAR     34  26  72 E9        30.34F WCI  27
WATERTOWN      CLEAR     33  26  75 E7        30.38S WCI  27
MADISON        PTCLDY    32  24  72 E6        30.38S WCI  26
MIDDLETON      FAIR      36  25  64 E9        30.36F WCI  29
MONROE         CLEAR     33  25  71 E8        30.33S WCI  26
JANESVILLE     CLEAR     34  27  75 E6        30.36S WCI  29
$$

WIZ051-052-058>065-066-070>072-191100-
SOUTHEAST WISCONSIN

CITY           SKY/WX    TMP DP  RH WIND       PRES   REMARKS
MILWAUKEE      PTCLDY    34  28  79 NE10      30.41S WCI  26
WAUKESHA       CLEAR     32  27  80 E6        30.39F WCI  26
MILWAUKEE/TIMM CLEAR     32  27  80 NE6       30.41F WCI  26
RACINE         CLEAR     34  28  79 E10       30.41S WCI  26
BURLINGTON     CLEAR     32  27  81 E5        30.38S WCI  27
KENOSHA        CLEAR     32  27  81 NE10      30.38S WCI  24
FOND DU LAC    PTCLDY    33  25  72 E9        30.41R WCI  25
SHEBOYGAN      CLEAR     32  27  81 E7        30.43S WCI  26
WEST BEND      PTCLDY    32  28  86 E7        30.41R WCI  26
JUNEAU         PTCLDY    33  24  69 E12       30.40S WCI  24
$$

LSZ147-162-191100-
LAKE SUPERIOR

STATION/POSITION TIME  TEMP    WIND        PRES    WAVE
                       AIR SEA DIR/SP/G            HT/PER
                 (UTC) (F)     (DEG/KT/KT) (MB)    (FT/S)
DEVILS ISLAND    1000   34     110/ 16/ 18 1026.7F
PORT WING        0900   38     110/  6/ 20 1024.7F
SAXON HARBOR     0900          160/  1/  9 1026.8S
$$

LMZ867-665-643>646-191100-
LAKE MICHIGAN

STATION/POSITION TIME  TEMP    WIND        PRES    WAVE
                       AIR SEA DIR/SP/G            HT/PER
                 (UTC) (F)     (DEG/KT/KT) (MB)    (FT/S)
NORTHPORT PIER   0900   32     100/  4/  6 1031.2S
SISTER BAY       0909   31      CALM  /  6   N/A
KEWAUNEE LAKESHO 0900   34      70/  5/ 10 1031.2R
SHEBOYGAN LAKESH 1000   35      70/ 11/ 13 1031.5R
PORT WASHINGTON  0900   36      70/  9/ 11 1030.8R
MILWAUKEE LAKESH 0900   36      50/  9/ 10   N/A
KENOSHA   LAKESH 1000   36      60/ 13/ 15   N/A
$$

TC  - TEMPERATURE IN CELSIUS
VSB - VISIBILITY IN STATUTE MILES
WCI - WIND CHILL INDEX
HX  - HEAT INDEX




USA.gov is the U.S. government's official web portal to all federal, state and local government web resources and services.